Location: ?ern� Novina
(50.6762°N, 14.8696°E)
Time: 12:55:52
(UTC+00:00)

Meteor 1-11 Rocket - Pass Details

Date: 03 March 2021
Orbit: 831 x 916 km, 81.2° (Epoch: 17 April)

Event Time Altitude Azimuth Distance (km) Brightness Sun altitude
Rises 19:24:49 0° 199° (SSW) 3,461 6.9 -25.6°
Reaches altitude 10° 19:27:18 10° 202° (SSW) 2,514 6.1 -25.9°
Maximum altitude 19:32:58 67° 285° (WNW) 929 4.0 -26.8°
Drops below altitude 10° 19:38:34 10° 8° (N) 2,478 6.3 -27.6°
Sets 19:41:00 0° 11° (NNE) 3,409 7.0 -27.9°
